This is the latest recevied weather packets stored in our database for station/object KC8SWY-15. If no packets are shown the sender has not sent any weather packets the latest 10 day(s).
| Time | Temp. | Humidity | Pressure | Rain* | Wind** | Luminosity | Snow |
|---|---|---|---|---|---|---|---|
| 1777571692 | 10° C | 47% | 1016.9 hPa | 0.51 mm | - | - | - |
| 1777571392 | 10° C | 46% | 1017 hPa | 0.51 mm | - | - | - |
| 1777571092 | 10° C | 50% | 1017.1 hPa | 0.51 mm | - | - | - |
| 1777570792 | 10° C | 47% | 1017 hPa | 0.51 mm | - | - | - |
| 1777570492 | 10° C | 47% | 1017 hPa | 0.51 mm | - | - | - |
| 1777570192 | 10° C | 46% | 1017.2 hPa | 0.51 mm | - | - | - |
| 1777569892 | 10° C | 50% | 1017.2 hPa | 0.51 mm | - | - | - |
| 1777569592 | 10° C | 49% | 1017.2 hPa | 0.51 mm | - | - | - |
| 1777569292 | 10° C | 47% | 1017.2 hPa | 0.51 mm | - | - | - |
| 1777568992 | 10° C | 46% | 1017.3 hPa | 0.51 mm | - | - | - |
| 1777568692 | 10° C | 49% | 1017.3 hPa | 0.51 mm | - | - | - |
| 1777568392 | 9.44° C | 51% | 1017.3 hPa | 0.51 mm | - | - | - |
| 1777568092 | 9.44° C | 51% | 1017.3 hPa | 0.51 mm | - | - | - |
| 1777567792 | 9.44° C | 52% | 1017.3 hPa | 0.51 mm | - | - | - |
| 1777567492 | 9.44° C | 52% | 1017.4 hPa | 0.51 mm | - | - | - |
| 1777567192 | 9.44° C | 53% | 1017.4 hPa | 0.51 mm | - | - | - |
| 1777566892 | 9.44° C | 52% | 1017.4 hPa | 0.51 mm | - | - | - |
| 1777566592 | 9.44° C | 54% | 1017.5 hPa | 0.51 mm | - | - | - |
| 1777566292 | 9.44° C | 51% | 1017.3 hPa | 0.51 mm | - | - | - |
| 1777565992 | 9.44° C | 52% | 1017.4 hPa | 0.51 mm | - | - | - |
| 1777565692 | 9.44° C | 52% | 1017.4 hPa | 0.51 mm | - | - | - |
| 1777565392 | 9.44° C | 53% | 1017.4 hPa | 0.51 mm | - | - | - |
| 1777565093 | 9.44° C | 52% | 1017.4 hPa | 0.51 mm | - | - | - |
| 1777564793 | 8.89° C | 53% | 1017.5 hPa | 0.51 mm | - | - | - |
| 1777564493 | 8.89° C | 55% | 1017.5 hPa | 0.51 mm | - | - | - |
* Rain latest hour (hover to see other rain measurements)
** Current wind speed in m/s (hover to see current wind gust speed)